Lid_Strength_Index
0 2 2 5 10 12 15 13 11 10 10 8 8 9 7 7 8 11 2 1 0 0 -0 -0 -0 -1 -1 -1 -1 -1 -1 -1 -1 -1 -1 -1 -1 -1 -1 -2 -2 -2 -2 -2 -2 -2 -2 -2 -2
1 1 4 8 12 15 14 12 12 10 7 7 7 8 7 8 5 4 3 1 0 -0 -0 -0 -0 -1 -1 -1 -1 -1 -1 -1 -1 -1 -1 -1 -1 -1 -2 -1 -1 -2 -2 -2 -2 -2 -2 -2 -1
2 2 7 11 13 15 14 11 10 9 8 7 7 7 6 7 4 3 1 0 -0 0 -0 -0 -0 -0 -1 -1 -1 -1 -1 -1 -1 -1 -1 -1 -1 -1 -2 -1 -1 -2 -2 -2 -2 -2 -2 -2 -2
3 5 7 12 13 11 11 9 9 8 7 7 8 7 4 3 3 2 1 0 0 0 -0 0 -0 -0 -1 -1 -1 -1 -1 -1 -1 -1 -1 -1 -1 -2 -1 -1 -1 -1 -2 -2 -2 -2 -2 -2 -2
4 7 11 13 12 10 9 8 8 9 8 7 9 7 6 3 2 1 1 0 1 0 -0 -0 0 -0 -1 -1 -1 -1 -1 -1 -1 -1 -1 -1 -1 -1 -1 -1 -1 -2 -2 -2 -2 -2 -2 -2 -2
9 9 13 13 11 9 8 8 8 8 8 7 8 9 6 2 2 2 1 1 0 0 -0 -0 -0 -0 -0 -0 -0 -0 -0 -1 -1 -1 -1 -1 -1 -1 -1 -1 -1 -2 -2 -2 -2 -2 -2 -2 -2
11 12 14 13 11 10 8 7 8 8 8 8 7 9 6 4 2 1 1 0 0 -0 -0 -0 -0 -0 -0 0 0 0 -0 -0 -0 -0 -1 -1 -1 -0 -1 -1 -2 -2 -2 -2 -1 -1 -1 -1 -1
9 11 14 13 12 10 8 7 7 8 8 5 6 9 8 4 2 1 1 1 1 0 0 0 -0 -1 -0 -0 0 0 0 0 -0 -0 -0 -0 -0 -0 -0 -1 -2 -2 -2 -1 -1 -1 -1 -1 -0
8 12 14 13 12 9 7 9 7 7 7 6 6 5 4 2 2 2 2 2 1 1 1 0 0 -0 -0 -0 -0 -0 -0 -0 -0 -0 -0 0 -0 -0 -0 -1 -1 -2 -2 -1 -1 -1 -1 0 0
9 12 11 9 9 9 8 10 8 9 9 7 7 6 6 3 3 4 4 4 3 2 1 1 0 0 -0 -0 -0 -0 -0 -0 -0 -0 -0 -0 -0 -0 -1 -0 -1 -1 -2 -1 -1 -0 -0 1 1
11 11 8 7 6 9 10 11 10 11 10 8 7 6 6 6 4 4 4 3 3 2 1 0 0 1 -0 1 -0 -0 -0 -0 -0 -0 -0 0 -0 -0 -0 -0 -0 0 -1 1 0 1 2 4 4
13 10 11 11 10 10 11 9 10 10 9 8 6 5 5 7 7 5 4 3 3 2 1 1 0 0 1 -0 0 -0 -0 -0 -0 -0 0 0 0 1 0 -0 0 0 1 1 1 2 3 5 4
13 12 11 10 10 10 9 10 9 10 8 7 7 6 7 7 9 7 3 2 2 2 1 1 0 0 1 1 1 1 1 0 0 -0 -0 -0 0 0 0 0 0 1 1 1 1 1 1 4 3
11 12 12 11 11 11 10 10 11 9 8 8 7 8 9 7 8 9 6 3 2 2 2 1 1 0 0 0 1 1 1 0 0 -0 -0 0 -0 0 0 1 0 1 0 1 1 1 1 2 2
11 14 13 12 12 12 12 13 13 10 8 8 7 7 7 8 7 8 8 6 2 2 1 1 1 0 0 1 0 1 1 1 0 -0 0 0 0 0 0 0 1 0 0 1 1 1 2 3 2
13 15 17 13 12 11 13 16 12 11 10 11 9 8 7 8 8 6 8 7 2 2 2 1 0 0 1 1 1 1 1 1 0 -0 -0 -0 1 -0 0 1 1 0 0 0 1 2 1 2 2
15 18 17 15 12 13 13 15 12 11 10 10 11 11 10 8 8 8 7 8 7 2 2 1 1 1 1 1 1 1 1 1 1 0 -0 -0 -0 0 1 1 1 2 0 0 1 2 2 3 2
17 17 16 17 14 12 14 15 13 11 11 12 12 11 11 10 9 7 7 7 7 4 1 2 1 1 1 1 1 2 2 1 1 1 -0 0 -0 -0 1 1 2 2 0 1 1 2 2 2 2
15 16 17 16 12 12 12 13 11 11 11 11 10 11 10 10 9 8 8 9 7 6 2 2 2 1 1 2 2 3 3 2 1 1 0 0 -0 -0 1 1 2 2 1 1 1 2 2 2 1
15 16 16 13 9 9 11 12 10 10 10 9 7 7 7 7 6 6 5 4 7 9 6 2 2 2 1 1 1 2 1 1 1 0 0 0 0 -0 1 1 1 2 1 2 2 2 3 2 1
14 15 14 13 10 11 11 13 11 9 9 7 7 6 5 6 6 6 6 5 5 4 4 4 1 1 1 1 1 2 1 2 1 1 1 0 1 -0 0 1 1 2 1 2 2 1 2 3 2
15 11 10 10 12 16 11 17 12 11 9 8 8 7 6 6 6 6 6 6 6 5 4 4 3 1 1 1 2 2 2 3 2 1 1 0 0 1 -0 1 1 1 1 1 2 1 1 2 3
12 10 10 10 12 14 13 17 14 10 11 9 7 7 7 6 6 6 6 6 6 6 5 5 4 3 1 1 1 2 2 2 1 1 1 1 1 1 0 0 1 1 1 2 2 2 2 1 2
11 11 11 11 13 18 13 15 16 14 12 9 7 6 6 6 6 6 6 5 6 6 5 5 5 4 3 2 1 2 2 2 2 2 2 1 1 1 1 0 0 1 1 2 2 2 1 1 1
12 14 21 20 21 20 12 14 15 11 9 8 7 7 6 5 6 7 7 7 6 6 6 5 5 5 3 3 2 1 2 2 2 2 2 2 2 1 1 1 1 1 1 1 2 2 2 1 1
13 13 19 22 22 18 12 15 15 9 7 7 6 6 5 6 6 7 7 7 6 6 5 5 5 5 4 3 2 2 1 1 1 1 1 2 2 1 1 1 1 1 1 1 1 2 1 1 1
13 17 11 16 14 18 15 14 11 8 10 8 7 6 6 6 6 7 6 7 7 6 5 4 5 5 5 5 4 2 2 1 2 1 1 1 1 1 1 1 1 2 2 2 2 1 2 1 1
13 11 18 18 25 26 18 15 16 12 12 11 8 7 6 5 6 6 6 6 6 5 5 4 4 5 6 5 5 3 2 1 1 1 1 1 1 1 1 1 1 2 2 2 2 2 1 1 1
14 15 15 15 15 20 22 18 9 12 12 12 8 7 6 6 6 5 6 6 6 6 5 5 4 4 6 6 5 4 2 3 1 4 2 1 1 1 1 1 1 1 2 2 3 2 2 2 1
11 13 14 21 23 19 18 19 10 11 10 10 8 7 6 6 5 5 5 5 6 6 6 5 5 4 4 5 5 5 3 2 2 1 3 4 1 1 1 1 1 1 1 1 2 3 2 3 2